Home > Weather > Clarksville > Past weeks

Flag for USA Weather for the Past 2 Weeks in Clarksville, Tennessee, USA

Now
66 °F

Sunny.


Feels Like: 66 °F
Forecast: 46 / 71 °F
Wind: 8 mph from North

Location: Outlaw Field

Current Time: May 6, 2016 at 11:53:24 AM

Latest Report: May 6, 2016 at 10:52 AM


Visibility: 10 mi

Pressure: 30.05 "Hg

Humidity: 49%

Dew Point: 46 °F

Location of ClarksvilleLocation

Historic Weather in Clarksville — Graph

°F

Clarksville Temperature Yesterday

Maximum temperature yesterday: 58 °F (at 3:52 PM)
Minimum temperature yesterday: 44 °F (at 2:52 AM)
Average temperature yesterday: 51 °F

High & Low Weather Summary for the Past Weeks

 TemperatureHumidityPressure
High83 °F (Apr 26, 3:52 PM)100% (Apr 24, 6:52 AM)30.14 "Hg (Apr 24, 6:52 AM)
Low44 °F (May 5, 2:52 AM)33% (Apr 25, 6:52 PM)29.70 "Hg (Apr 27, 3:52 PM)
Average62 °F76%29.91 "Hg
* Reported Apr 21 9:52 AM — May 6 9:52 AM, Clarksville, Weather by CustomWeather, © 2016

Note: Actual official high and low records may vary slightly from our data, if they occured in-between our weather recording intervals... More about our weather records

Advertising

Clarksville Weather History for the Previous 24 Hours

Scroll right to see more
 ConditionsComfort  
Time TempWeatherWind HumidityBarometerVisibility
9:52 AM
Fri, May 6
64 °FSunny.8 mph56%30.06 "Hg10 mi
8:52 AM60 °FSunny.8 mph60%30.05 "Hg10 mi
7:52 AM53 °FSunny.7 mph80%30.05 "Hg10 mi
6:52 AM48 °FSunny.6 mph89%30.03 "Hg10 mi
5:52 AM44 °FSunny.5 mph93%30.01 "Hg10 mi
4:52 AM45 °FClear.5 mph90%29.99 "Hg10 mi
3:52 AM45 °FClear.3 mph90%29.98 "Hg10 mi
2:52 AM45 °FClear.6 mph90%29.97 "Hg10 mi
1:52 AM45 °FClear.No wind90%29.98 "Hg10 mi
12:52 AM46 °FClear.5 mph86%29.99 "Hg10 mi
11:52 PM
Thu, May 5
47 °FClear.5 mph86%29.99 "Hg10 mi
10:52 PM48 °FClear.5 mph83%29.99 "Hg10 mi
9:52 PM50 °FClear.6 mph77%29.99 "Hg10 mi
8:52 PM52 °FClear.8 mph72%29.98 "Hg10 mi
7:52 PM55 °FOvercast.8 mph67%29.97 "Hg10 mi
6:52 PM56 °FScattered clouds.12 mph60%29.96 "Hg10 mi
5:52 PM56 °FOvercast.14 mph60%29.96 "Hg10 mi
4:52 PM57 °FOvercast.14 mph55%29.95 "Hg10 mi
3:52 PM58 °FPartly sunny.16 mph54%29.95 "Hg10 mi
2:52 PM56 °FBroken clouds.14 mph55%29.96 "Hg10 mi
1:52 PM56 °FOvercast.18 mph58%29.94 "Hg10 mi
12:52 PM53 °FOvercast.18 mph59%29.93 "Hg10 mi
11:52 AM53 °FMore clouds than sun.14 mph64%29.92 "Hg10 mi
Weather by CustomWeather, © 2016

See weather overviewHow to use our weather pages